Lexington Weather

Lexington, Massachusetts, USA

44°F
1/23/2020 12:34pm 
  • Lexington Conditions: Mostly cloudy
  • Temperature: 43.5°F / 6.4°CWarmer 4.1°F than last hour.
  • Dew Point: 21.9°FIncreased 0.2°Fsince last hour.
  • Relative Humidity: 42%Decreased 7.0% since last hour.
  • Wind: Calm, 10-min avg: Calm, gust: 1 mph
  • Barometer: 30.30 inFalling 0.02  inHg/hr Falling Slowly
  • Visibility: 10 miles
  • Rain Today: 0.02 in
  •   

Regional Weather Roundup
for Boston / Norton, MA

        
000
ASUS41 KBOX 230200
RWRBOX

REGIONAL WEATHER ROUNDUP
NATIONAL WEATHER SERVICE BOSTON/NORTON MA
900 PM EST WED JAN 22 2020

NOTE:  "FAIR" INDICATES FEW OR NO CLOUDS BELOW 12,000 FEET WITH NO 
SIGNIFICANT WEATHER AND/OR OBSTRUCTIONS TO VISIBILITY.

MAZALL-230300-
EASTERN MASSACHUSETTS
  
CITY           SKY/WX    TMP DP  RH WIND       PRES   REMARKS
BOSTON         FAIR      33  17  51 SW5       30.41F WCI  29          
BEVERLY        FAIR      29  16  58 CALM      30.40F                  
LAWRENCE       FAIR      24  14  65 CALM      30.42S                  
BEDFORD        FAIR      18  11  74 CALM      30.40S                  
BLUE HILL        N/A     29  15  56 SW8       30.36F WCI  21          
NORWOOD        FAIR      19  12  74 S5        30.41F WCI  12          
MARSHFIELD     NOT AVBL                                               
PLYMOUTH       FAIR      21  17  84 CALM      30.42F                  
TAUNTON        FAIR      19  15  84 CALM      30.42F                  
NEW BEDFORD    FAIR      21  16  81 CALM      30.42F                  
$$

MAZALL-230300-
CAPE COD AND THE ISLANDS
  
CITY           SKY/WX    TMP DP  RH WIND       PRES   REMARKS
FALMOUTH       CLEAR     23  18  80 CALM      30.42S                  
HYANNIS        NOT AVBL                                               
CHATHAM        FAIR      24  18  77 CALM      30.45S                  
PROVINCETOWN   FAIR      28  21  75 S7        30.44S WCI  21          
NANTUCKET      FAIR      24  18  77 CALM      30.44S                  
MARTHAS VNYRD  FAIR      18  14  84 CALM      30.43F                  
$$
 
MAZALL-230300-
CENTRAL AND WESTERN MASSACHUSETTS
  
CITY           SKY/WX    TMP DP  RH WIND       PRES   REMARKS
WORCESTER      FAIR      27  15  61 W10       30.36S WCI  17          
FITCHBURG      FAIR      21  15  78 CALM      30.39R                  
ORANGE         FAIR      15  12  88 CALM      30.39S                  
SPRINGFIELD    NOT AVBL                                               
WESTFIELD      NOT AVBL                                               
NORTH ADAMS    FAIR      16  11  80 CALM      30.39F                  
PITTSFIELD     FAIR      19  12  74 CALM      30.34F                  
$$
 
RIZALL-230300-
RHODE ISLAND
  
CITY           SKY/WX    TMP DP  RH WIND       PRES   REMARKS
PROVIDENCE     FAIR      27  19  72 SW3       30.43F                  
NEWPORT        FAIR      28  21  75 CALM      30.42F                  
BLOCK ISLAND   FAIR      29  23  78 SW3       30.44F                  
SMITHFIELD     FAIR      25  17  72 S3        30.40F                  
WESTERLY       FAIR      27  20  75 CALM      30.44F                  
$$
 
CTZALL-230300-
CONNECTICUT
  
CITY           SKY/WX    TMP DP  RH WIND       PRES   REMARKS
BRADLEY INTL   FAIR      23  17  78 CALM      30.41S                  
HARTFORD       FAIR      24  18  77 CALM      30.43S                  
BRIDGEPORT     FAIR      28  20  71 CALM      30.44S                  
DANBURY        FAIR      19  14  81 CALM      30.43S                  
GROTON         NOT AVBL                                               
NEW HAVEN      FAIR      23  17  78 CALM      30.43S                  
CHESTER        NOT AVBL                                               
MERIDEN        FAIR      21  16  81 MISG      30.43S                  
WILLIMANTIC    FAIR      18  14  84 CALM      30.43S                  
OXFORD         FAIR      26  16  65 CALM      30.40F                  
$$

MEZ002-015-021-024-NHZ003-005-008-011-012-014-VTZ005-008-230300-
NORTHERN NEW ENGLAND
  
CITY           SKY/WX    TMP DP  RH WIND       PRES   REMARKS
PORTLAND ME    FAIR      29  16  58 S7        30.38S WCI  22          
BANGOR ME      FAIR      23  20  88 S5        30.35S WCI  17          
CONCORD NH     FAIR      19  14  81 CALM      30.38S                  
MANCHESTER NH  MOCLDY    24  15  68 CALM      30.37S                  
NASHUA NH      FAIR      17  15  92 CALM      30.39S                  
PORTSMOUTH NH  NOT AVBL                                               
JAFFREY NH     FAIR      20  15  81 S6        30.35S WCI  12          
KEENE NH       FAIR      15  13  91 SW3       30.39S                  
BURLINGTON VT  FAIR      31  19  61 S9        30.32S WCI  23          
MT. WASHINGTON PTCLDY    18   0  45 W49         N/A  WCI  -6          
$$

NYZ052-076-230300-
EASTERN NEW YORK
  
CITY           SKY/WX    TMP DP  RH WIND       PRES   REMARKS
ALBANY         FAIR      25  14  63 CALM      30.40F                  
NEW YORK CITY  FAIR      36  18  48 S5        30.43F                  
$$
 
ANZALL-230300-
MARINE OBSERVATIONS
  
STATION/POSITION TIME  TEMP    WIND        PRES    VSBY  WAVE
                       AIR SEA DIR/SP/G                  HT/PER
                 (UTC) (F)     (DEG/KT/KT) (MB)    (MI)  (FT/S)
BOSTON BUOY      0050   36 42  210/  8/ 10 1029.5          1/11
BUZZARDS BAY     0100   36     210/  6/  7 1031.4R
NANTUCKET SOUND  0140                      1031.0R
MASS BAY-STELLWA 0104   36 42  240/ 10/ 14 1028.1R  1 7/8  1/ 3
ISLE OF SHOALS   0100   35     210/ 14/ 16 1029.2R
S OF BLOCK IS    0130      45                N/A           2/ 8
$$

......................KEY.........................
  SKY/WX - SKY CONDITION/PRESENT WEATHER
  TMP    - TEMPERATURE IN FAHRENHEIT
  DWPT   - DEWPOINT IN FAHRENHEIT
  RH     - RELATIVE HUMIDITY IN PERCENT
  WIND   - DIRECTION AND SPEED IN MPH
  PRES   - MEAN SEA LEVEL PRESSURE IN INCHES OF HG
  WCI    - WIND CHILL INDEX
  VSB    - VISIBILITY IN MILES
  HX     - HEAT INDEX
  TC     - TEMPERATURE IN CELSIUS
  VRB    - VARIABLE WIND DIRECTION
  N/A    - NOT AVAILABLE
  
      

Other recent Regional Weather Roundups

Thu Jan 23, 12:10pm

Thu Jan 23, 12:01pm

Thu Jan 23, 11:10am

Thu Jan 23, 11:00am

Thu Jan 23, 10:10am

Thu Jan 23, 10:00am

Thu Jan 23, 9:10am

Thu Jan 23, 9:00am

Thu Jan 23, 8:10am

Thu Jan 23, 8:00am

Thu Jan 23, 7:10am

Thu Jan 23, 7:01am

Thu Jan 23, 6:10am

Thu Jan 23, 6:00am

Thu Jan 23, 5:10am

Thu Jan 23, 5:00am

Thu Jan 23, 4:10am

Thu Jan 23, 4:01am

Thu Jan 23, 3:10am

Thu Jan 23, 3:00am

Thu Jan 23, 2:10am

Thu Jan 23, 2:00am

Thu Jan 23, 1:10am

Thu Jan 23, 1:00am

Thu Jan 23, 12:10am

Thu Jan 23, 12:00am

Wed Jan 22, 11:10pm

Wed Jan 22, 11:01pm

Wed Jan 22, 10:10pm

Wed Jan 22, 10:00pm

Wed Jan 22, 9:10pm

Wed Jan 22, 8:10pm

Wed Jan 22, 8:01pm

Wed Jan 22, 7:10pm

Wed Jan 22, 7:00pm

Wed Jan 22, 6:10pm

Wed Jan 22, 6:01pm

Wed Jan 22, 5:10pm

Wed Jan 22, 5:00pm

Wed Jan 22, 4:10pm

Wed Jan 22, 4:00pm

Wed Jan 22, 3:10pm

Wed Jan 22, 3:00pm

Wed Jan 22, 2:10pm

Wed Jan 22, 2:00pm

Wed Jan 22, 1:10pm

Wed Jan 22, 1:00pm

Wed Jan 22, 12:10pm

Wed Jan 22, 12:00pm

Wed Jan 22, 11:10am

Wed Jan 22, 11:00am

Wed Jan 22, 10:10am

Wed Jan 22, 10:01am

Wed Jan 22, 9:10am

Wed Jan 22, 9:00am

Wed Jan 22, 8:10am

Wed Jan 22, 8:00am

Wed Jan 22, 7:10am

Wed Jan 22, 7:00am

Wed Jan 22, 6:10am

Wed Jan 22, 6:00am

Wed Jan 22, 5:10am

Wed Jan 22, 5:00am

Wed Jan 22, 4:10am

Wed Jan 22, 4:00am

Wed Jan 22, 3:10am

Wed Jan 22, 3:01am

Wed Jan 22, 2:10am

Wed Jan 22, 2:00am

Wed Jan 22, 1:10am

Wed Jan 22, 1:00am

Wed Jan 22, 12:10am

Wed Jan 22, 12:00am

Tue Jan 21, 11:10pm

Tue Jan 21, 11:00pm

Tue Jan 21, 10:10pm

Tue Jan 21, 10:00pm

Tue Jan 21, 9:10pm

Tue Jan 21, 9:01pm

Tue Jan 21, 8:10pm

Tue Jan 21, 8:00pm

Tue Jan 21, 7:10pm

Tue Jan 21, 7:00pm

Tue Jan 21, 6:10pm

Tue Jan 21, 6:01pm

Tue Jan 21, 5:10pm

Tue Jan 21, 5:00pm

Tue Jan 21, 4:10pm

Tue Jan 21, 4:00pm

Tue Jan 21, 3:10pm

Tue Jan 21, 3:01pm

Tue Jan 21, 2:10pm

Tue Jan 21, 2:00pm

Tue Jan 21, 1:10pm

Tue Jan 21, 1:00pm

Tue Jan 21, 12:10pm

Tue Jan 21, 12:00pm

Tue Jan 21, 11:10am

Tue Jan 21, 11:00am

Tue Jan 21, 10:10am

Tue Jan 21, 10:00am

Tue Jan 21, 9:10am

Tue Jan 21, 9:00am

Tue Jan 21, 8:10am

Tue Jan 21, 8:00am

Tue Jan 21, 7:10am

Tue Jan 21, 7:00am

Tue Jan 21, 6:10am

Tue Jan 21, 6:00am

Tue Jan 21, 5:10am

Tue Jan 21, 5:00am

Tue Jan 21, 4:10am

Tue Jan 21, 4:00am

Tue Jan 21, 3:10am

Tue Jan 21, 3:00am

Tue Jan 21, 2:10am

Tue Jan 21, 2:01am

Tue Jan 21, 1:10am

Tue Jan 21, 1:00am

Tue Jan 21, 12:10am

Tue Jan 21, 12:00am

Mon Jan 20, 11:10pm

Mon Jan 20, 11:00pm

Mon Jan 20, 10:10pm

Mon Jan 20, 10:00pm

Mon Jan 20, 9:10pm

Mon Jan 20, 9:00pm

Mon Jan 20, 8:10pm

Mon Jan 20, 8:00pm

Mon Jan 20, 7:10pm

Mon Jan 20, 7:00pm

Mon Jan 20, 6:10pm

Mon Jan 20, 6:00pm

Mon Jan 20, 5:10pm

Mon Jan 20, 5:00pm

Mon Jan 20, 4:10pm

Mon Jan 20, 4:01pm

Mon Jan 20, 3:10pm

Mon Jan 20, 3:00pm

Mon Jan 20, 2:10pm

Mon Jan 20, 2:00pm

Mon Jan 20, 1:10pm

Mon Jan 20, 1:00pm

Meta data:

ID: 7e4947fb-69ca-4867-8d27-66ac960a34f3
Link: https://api.weather.gov/products/7e4947fb-69ca-4867-8d27-66ac960a34f3